Flag for Germany Weather past 2 weeks in Göttingen, Lower Saxony, Germany

Now
32 °F

Passing clouds.


Feels Like: 27 °F
Forecast: 35 / 39 °F
Wind: 5 mph from Southwest

Location: Kassel / Calden

Current Time: Jan 27, 2015 at 10:47:13 PM

Latest Report: Jan 27, 2015 at 9:50 PM


Visibility: 5 mi

Pressure: 30.09 "Hg

Humidity: 100%

Dew point: 32 °F

Location of GöttingenLocation

Historic Weather in Göttingen — Graph

°F

Göttingen temperature yesterday

Maximum temperature yesterday: 39 °F (at 9:50 PM)
Minimum temperature yesterday: 34 °F (at 5:50 AM)
Average temperature yesterday: 35 °F

Past Weeks' High & Low Weather Summary

 TemperatureHumidityPressure
High50 °F (Jan 13, 1:20 PM)100% (Jan 19, 5:50 AM)30.33 "Hg (Jan 19, 5:50 AM)
Low21 °F (Jan 21, 7:50 AM)58% (Jan 13, 2:50 PM)29.50 "Hg (Jan 15, 4:20 PM)
Average35 °F85%29.94 "Hg
* Reported Jan 12 9:20 PM — Jan 27 9:20 PM, Göttingen, Weather by CustomWeather, © 2014

Note: Actual official high and low records may vary slightly from our data, if they occured in-between our weather recording intervals... More about our weather records

Advertising

Göttingen weather history for previous 24 hours

 ConditionsComfort  
Time TempWeatherWind HumidityBarometerVisibility
9:20 PM
Jan 27
34 °FPassing clouds.5 mph100%30.12 "Hg5 mi
8:50 PM34 °FPartly cloudy.7 mph93%30.12 "HgN/A
8:20 PM36 °FMostly cloudy.8 mph93%30.12 "HgN/A
7:50 PM34 °FPassing clouds.5 mph93%30.12 "HgN/A
7:20 PM34 °FPassing clouds.3 mph93%30.12 "HgN/A
6:50 PM34 °FPassing clouds.5 mph93%30.09 "HgN/A
6:20 PM36 °FPassing clouds.10 mph93%30.09 "HgN/A
5:50 PM36 °FMostly cloudy.9 mph93%30.09 "HgN/A
5:20 PM37 °FPassing clouds.12 mph87%30.09 "HgN/A
4:50 PM37 °FPartly sunny.12 mph87%30.09 "HgN/A
4:20 PM37 °FPartly sunny.10 mph87%30.09 "HgN/A
3:50 PM37 °FPartly sunny.13 mph87%30.09 "HgN/A
3:20 PM37 °FPartly sunny.13 mph93%30.07 "HgN/A
2:50 PM37 °FBroken clouds.13 mph87%30.07 "HgN/A
2:20 PM37 °FPartly sunny.10 mph93%30.07 "HgN/A
1:50 PM37 °FDrizzle. Partly sunny.15 mph87%30.07 "HgN/A
1:20 PM36 °FBroken clouds.15 mph93%30.07 "HgN/A
12:50 PM37 °FBroken clouds.16 mph87%30.07 "HgN/A
12:20 PM37 °FPartly sunny.15 mph87%30.07 "HgN/A
11:50 AM37 °FPartly sunny.13 mph93%30.09 "HgN/A
11:20 AM34 °FBroken clouds.12 mph93%30.09 "HgN/A
10:50 AM34 °FLight rain. Broken clouds.16 mph93%30.09 "Hg4 mi
10:20 AM36 °FBroken clouds.13 mph93%30.07 "HgN/A
9:50 AM36 °FPartly sunny.15 mph93%30.07 "HgN/A
9:20 AM36 °FPartly sunny.16 mph93%30.07 "HgN/A
8:50 AM36 °FPartly sunny.16 mph93%30.07 "HgN/A
8:20 AM34 °FLow clouds.20 mph93%30.07 "HgN/A
7:50 AM36 °FMostly cloudy.17 mph87%30.04 "HgN/A
7:20 AM36 °FLow clouds.17 mph87%30.04 "HgN/A
6:50 AM36 °FMostly cloudy.18 mph87%30.04 "HgN/A
6:20 AM36 °FLight rain. Partly cloudy.15 mph93%30.04 "HgN/A
5:50 AM36 °FOvercast.14 mph93%30.04 "HgN/A
Weather by CustomWeather, © 2014

See weather overviewHow to use our weather pages